Powrót do katalogu

ARKTIKA-M 2

AktywnyPogodaHEO
NORAD 58584·PAYLOAD·🇷🇺 Russia

Wystrzelony Dec 16, 2023 z Baikonur Cosmodrome

Loading…

Następne Przeloty (najbliższe 24 godziny)

TLE

NieaktualneSource: Space-Track

Epoka: Aug 18, 2026, 01:47 UTC

1 58584U 23198A   26230.07438780  .00000056  00000-0  00000-0 0  9994
2 58584  63.2129 147.3319 6901614 267.6403  18.7125  2.00593343 19562

Śledź ARKTIKA-M 2 w czasie rzeczywistym z AllMySat

Download on the App Store